Weather History for EDDT - January, 2013

Change the Weather History Date:

Thursday, January 10, 2013

  Actual Average Record
Temperature  
Mean Temperature 36 °F -  
Max Temperature 41 °F 38 °F 57 °F (1998)
Min Temperature 30 °F 28 °F 15 °F (2003)
Degree Days  
Heating Degree Days 28    
Moisture  
Dew Point 35 °F    
Average Humidity 90    
Maximum Humidity 100    
Minimum Humidity 72    
Precipitation  
Precipitation 0.08 in - - ()
Sea Level Pressure  
Sea Level Pressure 29.73 in    
Wind  
Wind Speed 11 mph ()    
Max Wind Speed 18 mph    
Max Gust Speed -    
Visibility 7.2 miles    
Events Rain , Snow    
Averages and records for this station are not official NWS values.
T = Trace of Precipitation, MM = Missing Value Source: Averaged Metar Reports

Daily Weather History Graph

Daily Weather History Graph

Search for Another Location

Airport or City:

Trip Planner

Search our weather history database for the weather conditions in past years. The results will help you decide how hot, cold, wet, or windy it might be!

Date:

Astronomy

Jan. 10, 2013 Rise Set
Actual Time 8:14 AM CET 4:14 PM CET
Civil Twilight 7:33 AM CET 4:55 PM CET
Nautical Twilight 6:50 AM CET 5:38 PM CET
Astronomical Twilight 6:09 AM CET 6:19 PM CET
Moon 6:37 AM CET (1/10) 3:03 PM CET (1/10)
Length of Visible Light 9h 21m
Length of Day
8h 00m
Waning Crescent, 3% of the Moon is Illuminated
Jan 10
Waning Crescent
Jan 11
New
Jan 19
First Quarter
Jan 27
Full
Feb 3
Last Quarter

Hourly Weather History & Observations

Time (CET) Temp. Windchill Dew Point Humidity Pressure Visibility Wind Dir Wind Speed Gust Speed Precip Events Conditions
12:00 AM 42 °F - 39 °F 83% 29.82 in 28 mi WNW 11.2 mph - -   Mostly Cloudy
12:20 AM 41.0 °F 34.7 °F 39.2 °F 93% 29.80 in 6.2 mi WNW 10.4 mph - N/A   Mostly Cloudy
12:50 AM 41.0 °F 34.7 °F 39.2 °F 93% 29.80 in 6.2 mi WNW 10.4 mph - N/A   Mostly Cloudy
1:00 AM 41 °F - 38 °F 86% 29.82 in 28 mi WNW 11.2 mph - - Rain Light Rain
1:20 AM 41.0 °F 35.2 °F 39.2 °F 93% 29.80 in 6.2 mi West 9.2 mph - N/A   Mostly Cloudy
1:50 AM 41.0 °F 34.3 °F 39.2 °F 93% 29.80 in 6.2 mi West 11.5 mph - N/A   Mostly Cloudy
2:00 AM 41 °F - 38 °F 85% 29.81 in 25 mi West 11.2 mph - -   Mostly Cloudy
2:20 AM 41.0 °F 34.7 °F 37.4 °F 87% 29.77 in 6.2 mi West 10.4 mph - N/A   Mostly Cloudy
2:50 AM 39.2 °F 30.8 °F 37.4 °F 93% 29.77 in 6.2 mi WNW 15.0 mph - N/A Rain Light Rain
3:00 AM 40 °F - 37 °F 84% 29.80 in 7 mi WNW 15.7 mph - - Rain Light Rain
3:20 AM 39.2 °F 31.6 °F 37.4 °F 93% 29.77 in 6.2 mi West 12.7 mph - N/A   Mostly Cloudy
3:50 AM 39.2 °F 31.2 °F 37.4 °F 93% 29.77 in 6.2 mi West 13.8 mph - N/A   Mostly Cloudy
4:00 AM 40 °F - 37 °F 85% 29.78 in 19 mi West 13.4 mph - - Rain Light Rain
4:20 AM 39.2 °F 30.8 °F 37.4 °F 93% 29.74 in 6.2 mi West 15.0 mph - N/A   Mostly Cloudy
4:50 AM 39.2 °F 30.8 °F 37.4 °F 93% 29.74 in 6.2 mi West 15.0 mph - N/A   Mostly Cloudy
5:00 AM 40 °F - 37 °F 83% 29.76 in 22 mi West 13.4 mph - -   Mostly Cloudy
5:20 AM 39.2 °F 30.5 °F 37.4 °F 93% 29.74 in 6.2 mi West 16.1 mph - N/A   Mostly Cloudy
5:50 AM 39.2 °F 30.5 °F 37.4 °F 93% 29.74 in 6.2 mi West 16.1 mph - N/A   Mostly Cloudy
6:00 AM 40 °F - 36 °F 82% 29.75 in 16 mi West 15.7 mph - - Rain Light Rain
6:20 AM 39.2 °F 30.5 °F 35.6 °F 87% 29.74 in 6.2 mi West 16.1 mph - N/A   Mostly Cloudy
6:50 AM 39.2 °F 30.8 °F 35.6 °F 87% 29.74 in 6.2 mi West 15.0 mph - N/A   Mostly Cloudy
7:00 AM 40 °F - 36 °F 79% 29.74 in 22 mi West 15.7 mph - -   Partly Cloudy
7:20 AM 39.2 °F 30.8 °F 35.6 °F 87% 29.71 in 6.2 mi West 15.0 mph - N/A   Mostly Cloudy
7:50 AM 39.2 °F 31.2 °F 37.4 °F 93% 29.71 in 6.2 mi West 13.8 mph - N/A   Mostly Cloudy
8:00 AM 40 °F - 36 °F 82% 29.73 in 17 mi West 13.4 mph - -   Overcast
8:20 AM 39.2 °F 30.5 °F 37.4 °F 93% 29.71 in 6.2 mi West 16.1 mph - N/A Rain Light Rain
8:50 AM 39.2 °F 29.8 °F 37.4 °F 93% 29.71 in 6.2 mi West 18.4 mph - N/A   Mostly Cloudy
9:00 AM 40 °F - 37 °F 85% 29.72 in 14 mi West 17.9 mph - - Rain Light Rain
9:20 AM 39.2 °F 30.5 °F 37.4 °F 93% 29.71 in 5.6 mi West 16.1 mph - N/A Rain Light Rain
9:50 AM 39.2 °F 31.2 °F 37.4 °F 93% 29.68 in 6.2 mi West 13.8 mph - N/A Rain Light Rain
10:00 AM 40 °F - 37 °F 87% 29.71 in 9 mi West 13.4 mph - - Rain Light Rain
10:20 AM 41.0 °F 32.8 °F 37.4 °F 87% 29.68 in 6.2 mi West 16.1 mph - N/A   Mostly Cloudy
10:50 AM 39.2 °F 30.5 °F 37.4 °F 93% 29.71 in 5.6 mi West 16.1 mph - N/A Rain Light Rain
11:00 AM 40 °F - 37 °F 87% 29.71 in 6 mi West 15.7 mph - - Rain Light Rain
11:20 AM 39.2 °F 30.2 °F 37.4 °F 93% 29.68 in 3.7 mi West 17.3 mph - N/A Rain Rain
11:50 AM 39.2 °F 30.8 °F 37.4 °F 93% 29.68 in 5.6 mi West 15.0 mph - N/A Rain Rain
12:00 PM 39 °F - 37 °F 92% 29.69 in 6 mi West 15.7 mph - - Rain Rain
12:20 PM 39.2 °F 31.2 °F 37.4 °F 93% 29.68 in 5.0 mi West 13.8 mph - N/A Rain Rain
12:50 PM 37.4 °F 29.8 °F 35.6 °F 93% 29.68 in 5.0 mi NW 11.5 mph - N/A Rain Light Rain
1:00 PM 37 °F - 35 °F 91% 29.69 in 5 mi NW 11.2 mph - - Rain Light Rain
1:20 PM 37.4 °F 30.8 °F 35.6 °F 93% 29.68 in 5.6 mi NW 9.2 mph - N/A Rain Light Rain
1:50 PM 35.6 °F 29.2 °F 35.6 °F 100% 29.68 in 6.2 mi WNW 8.1 mph - N/A Rain Light Rain
2:00 PM 36 °F - 35 °F 93% 29.68 in 6 mi WNW 8.9 mph - - Rain Light Rain
2:20 PM 35.6 °F 29.9 °F 35.6 °F 100% 29.68 in 4.3 mi WNW 6.9 mph - N/A Rain Light Rain
2:50 PM 35.6 °F 29.2 °F 33.8 °F 93% 29.68 in 5.0 mi NW 8.1 mph - N/A Rain Rain
3:00 PM 36 °F - 34 °F 91% 29.69 in 5 mi NW 8.9 mph - - Rain Rain
3:20 PM 35.6 °F 29.2 °F 33.8 °F 93% 29.68 in 6.2 mi North 8.1 mph - N/A Rain Light Rain
3:50 PM 35.6 °F 29.9 °F 33.8 °F 93% 29.68 in 6.2 mi North 6.9 mph - N/A   Mostly Cloudy
4:00 PM 35 °F - 33 °F 89% 29.70 in 11 mi North 6.7 mph - - Rain Light Rain
4:20 PM 35.6 °F 30.7 °F 33.8 °F 93% 29.68 in 6.2 mi North 5.8 mph - N/A   Mostly Cloudy
4:50 PM 35.6 °F 31.7 °F 33.8 °F 93% 29.68 in 6.2 mi North 4.6 mph - N/A Rain Light Rain
5:00 PM 35 °F - 33 °F 91% 29.71 in 16 mi North 4.5 mph - - Rain Light Rain
5:20 PM 33.8 °F 29.6 °F 32.0 °F 93% 29.71 in 6.2 mi North 4.6 mph - N/A Rain , Snow Light Rain
5:50 PM 33.8 °F 28.6 °F 32.0 °F 93% 29.71 in 5.0 mi North 5.8 mph - N/A Snow Light Snow
6:20 PM 33.8 °F 26.4 °F 32.0 °F 93% 29.71 in - NNE 9.2 mph - N/A Snow Light Snow
6:50 PM 33.8 °F - 32.0 °F 93% 29.71 in 6.2 mi North 2.3 mph - N/A Snow Light Snow
7:00 PM 33 °F - 32 °F 92% 29.74 in 7 mi North 6.7 mph - - Snow Light Snow
7:20 PM 33.8 °F 29.6 °F 32.0 °F 93% 29.71 in 6.2 mi North 4.6 mph - N/A   Mostly Cloudy
7:50 PM 32.0 °F 27.5 °F 30.2 °F 93% 29.74 in 6.2 mi NNW 4.6 mph - N/A   Mostly Cloudy
8:00 PM 33 °F - 31 °F 88% 29.75 in 11 mi North 6.7 mph - - Snow Light Snow
8:20 PM 32.0 °F 28.7 °F 30.2 °F 93% 29.74 in 5.0 mi NNW 3.5 mph - N/A Snow Light Snow Showers
8:50 PM 32.0 °F 26.4 °F 30.2 °F 93% 29.74 in 6.2 mi NNW 5.8 mph - N/A   Mostly Cloudy
9:00 PM 33 °F - 30 °F 85% 29.75 in 9 mi North 6.7 mph - - Snow Light Snow Showers
9:20 PM 32.0 °F 28.7 °F 30.2 °F 93% 29.74 in 6.2 mi NW 3.5 mph - N/A   Scattered Clouds
9:50 PM 32.0 °F 25.6 °F 28.4 °F 87% 29.74 in 6.2 mi NW 6.9 mph - N/A   Mostly Cloudy
10:00 PM 32 °F - 28 °F 81% 29.77 in 11 mi NW 8.9 mph - -   Partly Cloudy
10:20 PM 32.0 °F 24.8 °F 26.6 °F 80% 29.74 in 6.2 mi NNW 8.1 mph - N/A   Mostly Cloudy
10:50 PM 32.0 °F 24.8 °F 26.6 °F 80% 29.77 in 6.2 mi NW 8.1 mph - N/A   Mostly Cloudy
11:00 PM 32 °F - 26 °F 72% 29.78 in 16 mi NW 8.9 mph - -   Mostly Cloudy
11:20 PM 32.0 °F 26.4 °F 24.8 °F 75% 29.77 in 6.2 mi NW 5.8 mph - N/A   Mostly Cloudy
11:50 PM 30.2 °F 22.6 °F 26.6 °F 86% 29.77 in 6.2 mi NW 8.1 mph - N/A   Mostly Cloudy